Regional Weather Roundup
Issued by NWS Sterling, VA

Home | Current Version | Previous Version | Graphics & Text | Print | Product List | Glossary On
Versions: 1 2 3 4 5 6 7 8 9 10 11 12 13 14 15 16 17 18 19 20 21 22 23 24 25 26 27
000
ASUS41 KLWX 232310
RWRLWX

REGIONAL WEATHER ROUNDUP
NATIONAL WEATHER SERVICE BALTIMORE MD/WASHINGTON DC
700 PM EDT THU OCT 23 2014

Note: "FAIR" indicates few or no clouds below 12,000 feet
with no significant weather and/or obstructions to visibility.
 TC=TEMPERATURE CELSIUS

 * =Non NWS site. Station does not report precipitation (e.g. rain,
    snow, etc.), thunder, or fog.

DCZ001-MDZ009-015-VAZ040>042-051-053>054-240000-
WASHINGTON METRO

CITY           SKY/WX    TMP DP  RH WIND       PRES   REMARKS
WASHINGTON NAT MOCLDY    66  43  43 NW9       29.87S
DULLES         MOCLDY    62  42  47 NW13      29.88S
ANDREWS AFB    CLOUDY    62  45  54 NW13      29.86R
FT BELVOIR     CLOUDY    62  46  55 W7        29.88R
QUANTICO       MOCLDY    60  45  57 NW7       29.90R
COLLEGE PARK*  CLOUDY    63  45  51 NW8       29.85S
LEESBURG*      CLOUDY    64  45  48 NW18G26   29.89S
MANASSAS*      MOCLDY    61  45  55 W9        29.89S
GAITHERSBURG*  CLOUDY    61  43  51 NW9G17    29.90R

$$

MDZ006>007-011-014-240000-
BALTIMORE METRO

CITY           SKY/WX    TMP DP  RH WIND       PRES   REMARKS
BWI AIRPORT    CLOUDY    62  44  51 NW9       29.85R
MD SCIENCE CTR   N/A     64  44  48 MISG      29.86R
MARTIN STATE   CLOUDY    63  48  59 CALM      29.87R
ANNAPOLIS      CLOUDY    62  48  60 NW5       29.85R
FORT MEADE*    CLOUDY    61  43  51 NW6       29.88R

$$

MDZ012-015-019>023-240000-
MARYLAND EASTERN SHORE

CITY           SKY/WX    TMP DP  RH WIND       PRES   REMARKS
OCEAN CITY     CLOUDY    56  47  71 NW14G21   29.81R
SALISBURY      CLOUDY    60  48  64 NW10      29.84R
BAY BRIDGE AP*   N/A     61  46  59 NW7       29.85R
CAMBRIDGE*     CLOUDY    61  46  59 NW8G17    29.84R
EASTON*        CLOUDY    59  50  72 N6        29.89R

$$

MDZ017>025-240000-
SOUTHERN MARYLAND

CITY           SKY/WX    TMP DP  RH WIND       PRES   REMARKS
PATUXENT RIVER MOCLDY    61  46  57 NW15      29.86R
ST INIGOES     CLOUDY    61  43  51 NW7       29.87R
LEONARDTOWN*   MOCLDY    59  43  55 W3        29.88R

$$

MDZ003>005-240000-
NORTH CENTRAL MARYLAND

CITY           SKY/WX    TMP DP  RH WIND       PRES   REMARKS
FREDERICK*     NOT AVBL
HAGERSTOWN APT CLOUDY    62  41  46 NW12      29.90R
WESTMINSTER*   CLOUDY    61  45  55 NW9       29.87R

$$

MDZ501>502-240000-
WESTERN MARYLAND

CITY           SKY/WX    TMP DP  RH WIND       PRES   REMARKS
OAKLAND*       PTCLDY    46  46 100 NW8G22    30.04R
CUMBERLAND*    CLEAR     61  41  48 NW13G22   30.02R

$$

VAZ025>031-240000-
SHENANDOAH VALLEY

CITY           SKY/WX    TMP DP  RH WIND       PRES   REMARKS
WINCHESTER*    PTCLDY    61  36  39 W15       29.94R
FRONT ROYAL*   MOCLDY    57  43  58 NW3       29.95R
LURAY*         CLOUDY    59  45  58 S6        29.98R
NEW MARKET*    FAIR      56  42  59 CALM      29.99R
STAUNTON*      CLEAR     55  40  56 N5        30.02R
WAYNESBORO*    FAIR      53  39  60 NW5       29.99R

$$

WVZ021-048>050-054>055-240000-
EASTERN WEST VIRGINIA PANHANDLE

CITY           SKY/WX    TMP DP  RH WIND       PRES   REMARKS
MARTINSBURG    CLOUDY    64  38  38 NW12G23   29.92R
PETERSBURG*    CLEAR     57  40  53 NW9       30.03S

$$

VAZ036>039-050-240000-
CENTRAL FOOTHILLS

CITY           SKY/WX    TMP DP  RH WIND       PRES   REMARKS
CHARLOTTESVILL CLEAR     59  41  51 NW5       29.95R
CULPEPER*      CLEAR     61  45  55 W5        29.92S
ORANGE*        CLEAR     59  45  58 SW6       29.94R
GORDONSVILLE*  FAIR      55  46  69 CALM      29.93R
WARRENTON*     FAIR      58  50  73 W8        29.90S

$$

VAZ055>057-240000-
NORTH AND CENTRAL PIEDMONT

CITY           SKY/WX    TMP DP  RH WIND       PRES   REMARKS
FREDERICKSBRG* CLEAR     61  45  55 W6        29.90R
STAFFORD*      CLEAR     58  42  55 W6        29.94R

$$

NCZ024-NYZ072-PAZ021-071-VAZ022-071-240000-
OTHER REGIONAL OBSERVATIONS

CITY           SKY/WX    TMP DP  RH WIND       PRES   REMARKS
NEW YORK CITY  CLOUDY    52  47  83 NW9G18    29.77R
PHILADELPHIA   MOCLDY    55  43  63 NW14      29.82R
PITTSBURGH     PTCLDY    55  42  61 NW12      30.07R
ROANOKE        PTCLDY    52  40  63 NW7       30.05R
RICHMOND       PTCLDY    61  43  51 N8        29.91R
RALEIGH        PTCLDY    63  43  48 NW5       29.96R

$$

ANZ530>537-240000-
MARINE OBSERVATIONS

STATION/POSITION TIME  TEMP    WIND        PRES
                       AIR SEA DIR/SP/G
                 (UTC) (F)     (DEG/KT/KT) (MB)
THOMAS PT LIGHT  2300   62 62  330/  8/  9 1011.9R
BALT KEY BRIDGE  2300   64     320/ 12/ 15 1010.4R
COVE POINT       2300   61     330/ 11/ 16 1010.8R
LEWISETTA        2300   62 60  330/  9/ 12 1011.1S
SOLOMONS ISLAND  2300      64                N/A
PINEY POINT      2300          340/ 16/ 18   N/A

$$




USA.gov is the U.S. government's official web portal to all federal, state and local government web resources and services.